{"data":{"norad_id":57472,"epoch":"2026-05-25T00:54:23.048928Z","epoch_age_seconds":71716,"freshness":"FRESH","line1":"1 57472U 23107R   26145.03776677  .00003611  00000+0  14073-3 0  9997","line2":"2 57472  43.0029 264.9200 0001530 272.0586  88.0090 15.27573310156828","mean_motion":15.2757331,"eccentricity":0.000153,"inclination_deg":43.0029,"raan_deg":264.92,"arg_perigee_deg":272.0586,"mean_anomaly_deg":88.009,"bstar":0.00014073,"rev_number":15682,"period_min":94.267161554426,"perigee_km":482.01936384184,"apogee_km":484.11889291712,"semimajor_km":6861.2061283795,"source":"CELESTRAK","updated_at":"2026-05-25T13:38:18.325629Z"}}